Wind_Speed
31 33 33 31 32 33 35 35 35 34 33 31 29 27 26 25 25 25 27 30 33 36 38 40 40 40 40 40 40 40 40 39 39 38 38 37 36 35 34 33 33 32 32 31 31 31 31 31 32 32 32 32 31 31 31 31 31 31 32 32 33 33 34 34 34 34 34 34 34
32 33 34 34 33 34 34 34 34 34 33 32 30 28 27 26 25 26 27 29 31 34 37 39 40 41 41 41 41 40 40 39 39 38 38 37 36 35 35 34 33 33 32 32 32 32 33 33 33 33 33 33 33 33 32 32 32 33 33 34 34 34 35 35 35 35 35 35 35
33 35 35 35 34 34 34 34 34 34 34 32 31 29 28 28 28 27 27 28 29 32 34 37 39 40 41 41 41 41 40 39 39 38 38 37 36 35 35 34 34 33 33 33 33 34 34 34 34 35 35 35 35 34 34 34 34 34 34 34 35 35 35 35 35 35 35 36 36
33 34 34 34 34 34 34 34 34 34 34 33 31 30 29 29 29 28 27 27 28 30 32 35 37 38 40 40 41 40 40 40 39 38 38 37 36 36 35 35 34 34 34 34 34 35 35 35 35 36 36 36 36 36 35 35 35 35 35 35 36 36 36 36 36 36 36 36 37
33 33 33 33 33 33 33 33 33 34 33 32 31 30 30 30 29 28 27 27 28 29 30 32 34 36 37 38 39 39 39 39 38 38 37 37 36 36 36 35 35 35 35 35 35 36 36 36 36 37 37 37 37 37 36 36 36 36 36 36 36 37 37 36 37 37 37 37 38
33 32 32 32 32 32 32 33 33 33 32 31 31 30 30 29 28 27 27 27 27 28 29 30 32 34 35 36 37 37 37 37 37 37 37 36 36 36 36 36 36 36 36 36 36 37 37 37 38 38 38 38 38 38 37 37 37 37 37 37 37 37 37 37 37 37 37 38 38
33 32 32 32 32 33 33 33 33 33 32 32 31 30 29 28 27 26 26 26 26 27 28 29 30 31 32 33 34 34 34 35 35 35 35 36 36 36 36 37 36 36 37 37 37 37 38 38 39 39 40 39 39 39 38 38 38 38 38 38 38 38 38 38 38 38 38 38 38
33 33 33 34 34 35 35 35 34 34 33 33 32 31 29 27 26 26 26 26 26 27 27 28 28 29 29 30 30 31 31 32 32 33 34 34 35 36 36 36 37 37 37 38 38 38 39 39 40 41 41 41 40 40 39 38 38 39 39 39 39 39 39 39 38 38 38 38 38
35 35 35 35 36 37 37 36 36 35 35 34 32 31 29 28 27 27 26 26 26 27 27 27 27 27 27 28 29 29 29 30 31 31 32 33 34 34 35 36 36 37 37 38 38 38 39 40 40 41 41 41 41 40 40 39 39 39 39 39 40 40 39 39 39 39 38 38 38
37 37 37 37 38 38 38 37 37 36 35 34 33 32 30 29 28 28 28 27 27 27 28 28 27 27 28 28 29 29 30 30 31 31 32 32 33 33 34 35 35 35 36 36 37 37 38 38 39 40 40 40 40 40 39 39 39 39 40 40 40 40 40 40 39 39 38 38 38
40 40 40 39 39 39 38 38 37 37 36 35 34 33 32 31 30 30 29 29 29 29 29 29 29 30 30 30 31 31 31 31 31 32 32 32 32 32 33 33 34 34 34 34 34 35 35 36 37 37 38 38 38 38 38 38 38 39 40 40 40 40 40 40 39 39 39 39 38
41 41 41 41 41 40 39 38 38 37 37 36 35 34 34 33 32 31 31 31 31 31 31 31 31 32 32 32 32 32 33 33 33 33 33 33 33 32 32 33 33 33 33 33 33 33 33 33 33 34 34 35 35 36 36 36 37 38 39 39 40 40 40 40 40 39 39 39 38
42 42 42 42 41 40 40 39 39 38 38 37 36 36 35 35 34 33 33 33 33 33 33 33 33 34 34 34 33 33 34 34 33 33 34 34 34 34 33 33 33 33 33 33 33 33 32 32 32 32 32 32 33 33 34 34 35 36 37 38 39 39 39 39 39 39 39 38 38
42 42 42 41 41 40 40 40 39 39 38 38 37 37 36 36 36 35 35 35 35 35 35 35 35 35 35 35 35 34 34 34 34 34 34 34 34 35 35 35 35 35 35 34 34 34 33 33 32 32 31 32 32 32 32 32 33 34 35 36 38 38 38 39 39 38 38 37 35
41 41 41 41 41 41 40 40 40 39 39 39 38 38 38 37 37 37 37 37 37 36 36 37 37 37 37 36 36 36 36 36 36 35 35 35 35 35 36 36 36 36 36 36 35 35 35 34 33 33 33 32 32 32 31 31 31 32 33 34 35 36 37 37 37 36 35 34 32
41 41 41 41 41 41 41 41 41 40 40 40 40 40 39 39 39 39 39 39 38 38 38 38 38 38 38 38 38 38 38 38 38 37 37 37 36 36 36 36 36 36 36 36 37 36 36 36 35 35 35 34 33 33 32 31 31 31 31 32 32 33 34 34 34 33 33 33 33
42 42 42 42 42 42 42 42 41 41 41 41 41 41 40 40 40 40 40 40 39 39 40 40 40 40 40 40 40 40 40 40 40 40 39 39 38 37 36 36 37 37 37 37 38 38 38 37 37 37 36 36 35 34 33 32 31 31 30 30 31 32 32 32 32 33 34 35 36
44 44 44 44 44 44 44 43 41 40 40 40 40 41 41 41 41 41 41 41 41 41 41 41 41 42 42 42 42 42 42 43 42 42 41 40 39 38 38 37 37 37 38 38 38 39 39 39 39 38 37 37 36 35 35 34 34 34 34 35 35 35 34 34 34 35 37 39 39
45 45 46 46 46 46 45 44 43 41 40 40 39 40 40 40 40 40 41 41 42 42 42 42 42 43 43 43 44 44 43 43 43 43 42 41 39 38 38 37 37 37 38 38 39 39 39 40 39 39 38 37 37 37 37 37 37 38 38 38 37 36 35 35 36 37 39 41 42
44 45 46 46 47 47 47 46 45 43 41 39 37 35 34 35 36 37 37 38 38 38 38 39 39 40 41 41 42 43 43 42 42 41 40 38 37 36 35 36 36 37 38 38 39 39 39 40 39 39 39 38 38 37 38 38 37 37 36 34 34 34 35 37 39 39 40 40 41
44 45 45 45 46 46 46 46 46 45 43 41 38 35 32 31 31 32 33 34 34 35 35 36 37 37 38 40 41 42 42 41 40 38 36 34 33 32 33 33 35 36 37 37 38 38 39 39 39 39 38 38 37 36 35 34 33 32 32 32 33 35 38 41 41 41 41 41 41
44 44 45 45 45 45 46 46 46 46 45 44 42 39 37 35 34 32 32 32 32 34 36 38 38 39 39 40 41 41 40 38 35 32 30 29 29 30 31 32 33 34 35 36 37 37 38 38 38 38 38 36 35 33 31 30 30 30 32 33 35 37 38 40 40 41 42 43 43
45 45 45 45 45 46 46 46 46 46 46 46 45 44 42 40 38 36 35 35 36 37 39 40 41 41 40 40 40 39 37 33 30 27 25 24 25 28 30 32 33 34 35 35 36 36 36 37 37 37 36 34 32 31 29 30 32 34 35 35 36 37 37 38 39 40 42 43 43
46 46 46 46 46 46 47 47 47 47 47 47 47 47 45 44 41 40 39 38 39 40 41 42 42 41 40 40 39 37 34 31 28 26 25 26 27 29 32 34 34 34 34 34 35 35 36 36 36 36 34 33 31 32 34 33 33 33 33 34 35 36 37 37 37 39 41 42 42
46 46 46 46 46 47 47 47 48 48 48 48 48 48 48 47 46 44 43 42 42 42 42 43 42 42 41 41 39 37 34 32 30 29 28 29 30 33 36 38 37 36 34 34 34 34 35 35 35 33 31 29 28 30 32 33 33 34 34 35 36 36 36 36 36 37 39 40 40
46 46 46 47 46 46 47 47 48 48 49 48 48 48 48 48 48 48 47 46 45 44 44 44 44 44 43 42 41 38 36 34 32 31 30 31 32 34 38 40 40 39 37 35 34 34 34 34 33 30 26 24 26 29 32 34 35 36 36 35 35 34 34 34 35 35 36 37 38
45 45 46 46 46 47 47 47 47 48 48 48 48 48 48 48 48 48 49 49 48 47 47 46 46 46 45 44 43 41 39 37 35 33 32 32 33 35 37 40 41 40 39 38 37 36 36 35 35 33 31 31 32 34 34 35 35 35 34 33 32 32 32 32 33 33 34 34 35
43 44 44 45 46 47 47 46 47 47 48 48 48 48 48 48 47 48 48 48 49 49 49 48 48 48 47 47 45 44 42 41 38 36 34 34 35 35 36 38 39 39 39 40 41 41 41 40 38 36 33 31 30 31 31 32 32 32 32 31 30 30 31 31 30 30 30 31 32
42 43 43 44 45 46 46 46 47 47 47 47 47 47 47 46 47 47 47 47 48 48 49 50 50 50 49 49 48 47 46 43 41 39 37 37 36 36 35 36 38 39 40 41 41 42 41 40 36 32 30 28 28 28 29 29 30 30 30 30 30 30 30 29 28 27 28 29 30
42 42 42 43 43 44 45 46 47 47 46 45 44 43 43 44 45 46 46 47 47 47 48 49 50 50 51 51 50 49 47 45 44 42 40 39 38 37 36 35 36 39 40 41 41 40 38 36 33 30 29 30 30 30 30 30 30 30 30 30 30 30 29 28 27 26 25 26 28
42 42 42 42 43 43 44 45 46 45 44 42 41 40 40 40 42 43 45 46 46 46 47 48 49 50 51 51 51 50 48 46 45 44 42 41 39 38 37 37 37 39 40 40 39 37 35 33 31 30 29 30 31 32 32 32 31 31 30 30 30 30 29 27 26 25 25 25 26
42 42 42 43 43 43 44 44 45 45 45 43 41 40 40 39 40 41 42 43 44 45 46 47 48 49 50 51 50 49 48 47 46 44 42 41 39 39 39 39 39 39 39 38 36 34 32 30 29 28 27 28 30 32 32 31 30 30 30 30 31 30 29 27 26 25 24 25 25
40 41 42 42 43 43 43 44 45 45 45 45 44 43 42 41 41 40 40 40 41 43 44 46 48 49 50 50 50 49 48 48 46 44 42 40 39 39 39 40 40 39 38 35 32 30 28 27 26 25 26 27 30 31 31 30 29 30 31 32 31 29 28 27 26 26 25 25 25
39 40 41 42 42 43 43 43 44 44 45 45 45 45 45 44 42 40 39 39 40 41 43 45 46 47 48 49 49 48 47 47 46 45 43 42 40 40 39 39 38 37 35 31 27 24 22 21 22 23 25 27 30 30 29 28 29 31 32 31 30 29 29 28 28 27 26 26 27
39 40 40 41 42 42 42 43 43 43 44 44 44 44 45 45 45 44 43 42 41 41 41 43 44 45 45 46 46 46 45 45 45 44 44 43 42 40 39 37 35 33 30 26 21 19 18 20 22 24 26 28 29 29 29 28 29 30 31 30 30 29 29 29 28 28 27 27 27
38 39 40 41 41 41 42 42 42 43 43 42 42 42 43 44 45 46 45 45 43 42 41 42 42 43 43 43 44 44 44 44 44 44 43 43 42 40 37 34 31 28 25 21 19 19 21 24 25 25 26 28 28 28 28 28 29 30 30 30 30 30 29 29 28 27 26 26 26
36 37 38 39 39 39 39 40 41 41 41 41 41 41 41 41 42 43 44 45 44 44 43 42 42 42 42 42 42 43 43 43 43 43 42 42 40 37 32 28 26 23 20 19 20 23 26 26 26 26 26 26 26 26 27 29 30 30 30 30 30 30 29 27 26 25 25 25 25
31 33 35 36 36 36 36 37 37 37 37 36 36 37 37 37 37 38 40 42 44 44 44 42 42 41 41 41 42 42 42 42 42 41 41 39 37 32 27 24 23 21 21 23 25 27 27 26 25 23 22 22 23 24 26 28 30 30 30 29 29 28 27 26 25 24 24 24 23
25 27 29 32 32 32 32 32 32 31 31 30 31 32 33 33 33 34 36 38 41 42 43 42 42 41 41 41 41 41 41 41 41 40 38 35 32 27 24 23 23 23 24 25 25 24 23 22 21 20 19 20 21 23 26 27 28 29 28 28 27 27 26 25 24 23 23 23 23
19 21 24 27 27 26 26 27 27 27 27 28 30 30 29 29 29 30 32 34 37 39 41 41 41 41 41 40 40 40 40 40 39 37 33 29 25 23 22 22 22 22 23 23 23 22 21 20 19 18 19 20 22 24 25 27 27 27 27 26 26 26 25 24 24 23 23 23 23
14 16 19 21 22 22 23 24 25 26 27 28 28 27 26 25 26 26 27 29 32 36 38 40 41 41 40 40 39 39 38 37 34 30 26 22 20 20 19 19 19 20 21 23 23 22 22 21 20 19 20 21 23 25 26 26 26 26 26 26 25 25 24 24 24 24 24 23 23
Wind_Direction
192 193 193 193 192 193 195 198 200 201 202 203 204 207 211 216 221 225 226 225 223 222 220 220 219 219 219 220 220 221 222 223 225 227 228 229 230 230 231 232 233 234 236 237 238 240 240 241 242 243 244 245 246 246 247 248 249 249 250 249 249 249 249 249 249 248 248 248 249
195 195 197 198 199 200 202 203 205 205 205 206 208 211 217 224 230 233 233 230 227 224 223 222 222 222 222 222 223 224 224 226 227 229 230 231 232 232 233 234 235 236 238 239 240 241 242 242 243 244 245 246 247 247 248 248 248 249 249 249 249 249 249 249 249 249 249 249 250
197 199 201 203 205 206 207 208 208 208 208 209 212 217 224 231 237 238 236 233 229 226 225 224 223 223 224 224 225 225 226 227 229 230 232 232 233 234 235 236 237 238 239 240 241 242 243 244 245 246 247 248 248 248 249 249 249 249 249 249 249 249 249 249 249 249 249 249 249
199 202 205 207 208 209 210 210 211 210 211 213 217 224 231 237 239 239 236 233 230 227 226 225 225 225 225 225 226 226 228 229 230 232 233 234 235 236 237 239 240 241 241 242 243 243 244 245 246 247 248 249 250 250 250 250 250 250 250 250 250 250 250 250 249 249 249 249 250
202 204 207 208 209 210 211 212 213 213 214 217 223 230 235 239 239 237 235 232 230 228 226 226 226 226 226 227 227 228 229 230 232 233 235 236 237 239 240 241 242 243 244 244 244 245 246 247 248 249 250 251 251 252 252 252 251 251 251 250 250 250 250 250 250 249 249 250 250
204 206 207 208 209 210 211 212 214 216 218 223 229 234 237 239 238 236 234 232 229 228 227 227 227 228 228 229 229 230 231 232 234 236 237 239 240 241 243 244 245 245 246 246 247 247 248 248 249 250 251 252 252 253 253 252 252 251 251 251 250 250 250 250 250 250 250 250 251
205 205 206 207 208 209 210 212 214 217 222 227 233 236 238 239 239 238 236 233 232 231 230 229 229 229 230 232 232 233 234 235 237 238 240 241 242 243 244 246 247 247 248 248 249 249 249 250 250 251 252 253 253 253 253 253 252 252 251 251 250 250 250 250 250 250 250 251 252
205 206 206 207 208 209 210 212 215 220 225 230 234 237 239 240 241 241 240 239 237 236 235 234 233 233 234 235 236 237 238 238 240 241 242 243 244 245 246 247 248 249 249 250 250 250 251 251 251 252 253 254 254 254 254 253 253 253 252 251 251 251 250 250 250 250 250 251 252
206 207 207 208 209 210 212 214 218 223 228 232 236 239 241 242 243 244 245 245 244 243 242 241 240 239 239 240 241 242 242 243 243 244 244 245 245 246 247 248 249 249 250 250 251 251 252 252 252 253 253 254 255 255 255 254 254 254 253 253 252 251 251 250 250 250 251 252 252
207 208 209 210 211 213 215 218 222 226 231 234 237 240 242 244 245 246 247 247 247 248 248 247 246 246 245 245 246 247 247 247 247 248 248 248 248 248 248 249 250 250 251 251 252 252 252 252 252 253 254 254 255 255 255 255 254 254 254 254 253 252 252 251 251 252 252 252 253
208 209 210 212 214 216 219 223 227 230 233 236 239 241 243 244 246 246 247 248 249 250 250 250 250 250 250 250 250 250 251 251 251 252 252 252 252 252 251 252 252 253 253 253 253 254 253 253 253 253 253 254 254 255 255 254 254 254 254 254 253 253 253 253 252 253 253 254 254
209 210 212 214 216 220 223 227 230 233 235 238 240 242 244 245 246 247 248 249 250 251 250 251 251 252 253 253 253 254 255 255 256 256 256 257 258 257 257 256 256 256 256 256 256 256 255 255 254 254 254 254 254 254 254 254 254 253 253 253 254 254 254 254 254 254 254 255 256
210 212 215 217 220 223 226 230 232 235 237 239 241 242 244 246 247 248 249 250 251 252 252 252 253 254 255 256 257 258 258 259 260 261 261 262 263 263 263 261 260 260 259 259 259 258 258 258 257 256 256 256 256 255 255 255 255 254 254 254 254 254 255 255 255 255 256 256 257
213 216 218 221 223 226 229 232 234 236 239 240 242 243 245 247 248 249 250 251 252 253 254 255 255 256 258 259 260 261 262 263 264 265 266 267 267 267 267 266 264 263 262 262 261 261 261 261 261 260 259 259 259 259 259 258 258 257 257 257 256 256 256 256 257 257 257 258 258
218 220 222 224 227 229 231 233 235 237 239 241 242 244 245 247 248 249 250 251 252 253 254 255 257 258 259 261 262 263 264 265 266 268 269 269 269 269 269 268 267 265 264 264 263 264 264 264 264 263 263 262 262 263 263 262 262 261 260 259 259 259 259 259 259 259 259 259 259
221 223 225 227 229 231 233 234 236 237 239 240 242 244 245 246 247 249 250 251 252 253 254 255 257 258 260 261 262 263 264 265 266 268 269 270 270 270 269 269 268 267 266 265 265 265 265 266 266 266 266 266 265 265 265 264 264 263 262 261 261 260 260 260 260 261 261 262 262
221 223 225 227 229 231 232 234 235 236 238 240 241 243 245 246 247 249 250 251 252 253 254 256 257 258 259 260 261 262 263 264 266 267 269 270 270 270 269 269 268 268 267 267 267 267 267 267 267 267 267 267 266 266 265 265 264 263 263 262 261 260 259 259 260 261 263 265 266
222 223 224 225 227 229 230 232 233 234 236 239 241 243 245 246 248 250 252 253 255 256 257 258 259 259 260 261 262 263 264 265 266 267 269 269 270 269 269 268 268 269 269 269 269 269 269 269 268 268 267 267 266 265 265 264 264 264 264 264 264 263 263 264 265 266 267 268 269
224 225 226 226 227 228 229 229 230 232 235 239 242 246 249 252 253 254 255 257 258 260 261 262 262 263 263 264 264 265 265 265 266 267 267 268 268 268 269 269 270 270 270 270 270 270 269 269 268 267 266 265 264 263 263 263 263 264 265 266 267 268 271 273 275 275 273 271 270
228 229 229 230 230 231 231 230 230 230 231 234 238 244 251 256 260 261 261 262 262 263 263 263 263 263 263 263 263 263 263 263 264 264 265 267 268 270 271 271 271 271 270 270 270 270 269 268 267 265 264 262 261 261 261 261 263 264 265 268 272 276 279 281 281 279 276 272 269
232 232 232 233 233 234 234 234 233 232 231 230 230 231 235 241 248 254 259 262 265 265 264 263 261 260 259 259 259 259 260 260 261 263 265 268 270 272 273 273 272 271 270 270 269 268 267 265 264 262 261 260 259 258 258 259 261 265 270 275 280 283 283 282 281 279 276 273 268
234 234 235 235 235 236 237 238 238 237 236 234 231 229 227 228 229 233 238 245 252 257 259 259 258 257 255 255 255 255 256 258 260 263 266 269 271 272 272 272 271 271 270 270 268 267 264 262 260 259 258 257 257 257 257 260 266 273 278 282 284 283 282 281 281 280 278 275 269
235 236 236 237 237 238 239 240 240 240 239 238 236 234 231 229 228 228 229 232 237 242 247 251 252 253 253 252 252 253 254 255 256 259 263 267 271 273 272 271 270 270 270 269 267 264 261 258 257 256 256 255 256 258 262 270 276 280 282 283 283 282 282 283 284 284 282 277 270
238 238 238 238 238 239 239 240 241 241 241 241 240 238 236 233 232 231 231 233 235 238 242 246 248 250 250 250 250 251 251 250 249 249 253 262 269 274 274 272 270 269 268 266 264 261 259 256 255 254 255 256 260 266 272 279 282 283 283 283 282 282 284 286 288 287 284 278 271
240 240 240 240 240 240 240 241 242 243 243 243 243 242 240 238 236 234 234 235 237 240 243 246 248 250 251 251 251 251 250 249 246 243 245 250 256 262 266 269 269 268 266 263 261 259 257 256 254 254 256 261 268 275 280 283 284 283 282 281 280 282 284 287 289 289 285 279 271
241 241 241 241 241 240 241 242 243 244 245 246 246 245 244 242 240 238 237 237 239 241 243 246 249 251 253 253 252 251 250 248 246 243 241 239 241 247 254 260 264 265 265 263 260 257 255 254 253 255 261 272 281 285 284 283 281 279 278 277 279 281 284 286 287 287 284 279 271
243 243 243 242 242 241 240 242 244 245 247 247 248 248 247 246 245 242 240 240 240 241 243 245 248 250 252 253 253 251 250 248 246 244 240 236 235 241 249 255 258 261 263 265 263 260 256 255 256 260 269 278 283 283 280 277 275 274 274 276 279 282 284 285 285 284 281 277 271
244 245 246 245 243 242 241 241 242 244 245 246 247 248 249 249 248 246 244 243 242 243 243 245 246 248 250 252 253 252 251 250 247 245 242 238 236 240 247 255 258 260 262 264 265 263 261 259 260 265 271 277 279 278 275 273 272 272 273 275 279 282 284 284 283 281 278 275 271
246 248 249 249 248 246 245 243 242 242 243 245 245 246 246 247 247 248 247 247 245 245 244 245 246 247 249 250 252 253 252 251 249 247 244 242 241 242 248 256 261 263 264 264 264 263 262 261 263 268 274 279 281 280 278 275 273 272 273 276 280 283 284 283 281 278 276 273 271
247 249 251 252 253 252 250 247 245 243 243 242 242 242 242 243 244 246 247 247 247 247 246 247 247 248 248 250 251 252 252 251 250 248 246 245 246 248 251 255 260 264 265 264 263 261 261 262 265 270 276 280 282 282 280 278 275 274 275 278 281 283 284 282 280 277 274 272 271
247 249 252 254 256 257 256 254 251 247 243 240 239 239 239 239 240 242 243 245 247 248 248 249 249 250 251 252 252 252 252 251 250 249 247 248 250 253 255 258 261 263 263 263 261 260 261 263 267 271 276 281 283 282 280 278 276 275 276 279 281 283 283 282 279 277 274 272 271
247 249 251 254 257 259 260 259 256 251 245 240 238 238 239 239 239 240 241 243 244 245 247 248 249 251 252 253 253 253 252 252 251 249 249 250 252 255 257 259 261 262 261 260 260 260 262 265 268 273 278 283 284 282 279 276 274 274 275 276 278 280 282 282 280 278 276 274 273
246 247 249 253 256 259 260 260 258 254 249 244 241 240 240 241 242 242 242 241 241 242 243 245 248 249 251 252 253 253 253 253 252 252 252 252 253 255 257 258 259 260 261 259 259 261 263 267 271 277 281 284 283 280 276 272 270 270 271 273 276 279 282 283 282 281 279 278 277
244 245 247 251 254 257 258 259 258 256 252 248 245 243 242 243 243 242 241 241 241 241 242 244 246 248 250 251 252 252 253 253 253 253 252 252 253 255 256 256 258 259 261 261 262 264 269 275 280 283 285 283 280 275 270 267 266 267 270 273 277 281 283 284 283 281 280 279 278
244 244 246 249 252 254 256 257 258 257 255 253 250 248 247 246 245 245 245 244 243 242 243 244 246 247 248 249 250 250 251 252 252 252 252 251 251 252 253 255 259 260 261 264 266 272 279 284 286 286 284 281 276 270 265 263 264 267 271 274 278 280 281 282 281 280 278 277 275
246 245 245 247 250 252 254 256 257 258 258 257 256 254 253 252 251 250 249 247 245 244 243 244 245 245 245 245 246 247 249 250 250 251 251 251 251 251 252 256 262 265 266 268 273 278 281 280 280 280 279 276 272 266 263 262 265 269 272 274 275 276 277 279 279 278 277 275 273
248 247 247 247 249 251 253 255 257 258 259 260 261 260 259 258 256 254 251 248 246 244 244 244 244 244 244 243 244 245 247 248 249 249 250 251 250 250 253 260 268 271 273 278 280 279 277 274 273 273 272 270 266 263 262 264 268 271 273 273 273 274 275 276 277 277 275 274 272
250 249 249 248 249 250 252 254 256 258 260 263 265 266 265 264 260 257 253 249 245 243 243 243 243 243 243 243 244 245 247 248 249 249 249 250 250 252 258 269 276 280 282 283 281 278 275 272 271 270 268 264 262 261 263 267 270 272 273 273 272 273 273 274 274 274 273 272 272
250 250 250 250 250 250 252 253 256 259 262 265 267 268 268 267 264 260 255 251 247 244 242 241 242 242 243 243 244 245 247 249 249 249 249 249 250 257 267 277 282 285 286 284 280 277 275 273 271 268 264 260 260 261 265 268 270 272 272 272 272 271 271 271 271 270 270 269 269
248 249 250 251 250 250 251 252 254 258 261 264 266 268 269 268 266 263 259 254 248 244 242 241 242 243 244 244 244 245 247 248 249 249 249 249 256 267 277 282 285 285 283 279 275 273 271 270 267 263 259 258 260 263 265 268 269 270 270 270 270 270 269 269 268 268 267 267 266
241 245 248 249 249 248 249 251 253 256 259 261 264 266 268 270 269 267 263 256 248 244 242 242 243 244 245 245 246 246 246 247 248 248 250 256 267 277 281 281 280 277 273 270 267 265 263 262 260 258 257 258 261 263 265 266 267 267 268 268 268 268 268 268 267 266 266 266 265
Height
1481 1482 1483 1485 1487 1489 1490 1492 1493 1495 1496 1498 1499 1501 1502 1503 1505 1506 1507 1508 1509 1510 1511 1512 1513 1515 1516 1517 1518 1519 1520 1521 1522 1523 1524 1525 1526 1527 1528 1528 1529 1530 1531 1532 1533 1534 1535 1535 1536 1536 1536 1537 1537 1538 1538 1539 1539 1539 1539 1539 1539 1540 1540 1540 1541 1541 1542 1543 1543
1480 1482 1483 1485 1486 1488 1489 1491 1492 1493 1495 1497 1498 1499 1501 1502 1503 1504 1505 1506 1507 1508 1509 1511 1512 1513 1514 1515 1516 1517 1518 1520 1521 1521 1522 1523 1524 1525 1526 1527 1527 1528 1529 1530 1531 1532 1532 1533 1533 1533 1534 1534 1535 1535 1536 1536 1537 1537 1536 1536 1537 1537 1537 1537 1538 1539 1540 1540 1541
1480 1481 1482 1484 1485 1487 1488 1490 1491 1492 1494 1495 1497 1498 1499 1500 1501 1502 1503 1504 1505 1506 1507 1509 1510 1511 1512 1513 1515 1516 1517 1518 1519 1520 1521 1522 1522 1523 1524 1524 1525 1526 1527 1528 1529 1529 1530 1530 1531 1531 1531 1531 1532 1532 1533 1533 1534 1534 1534 1534 1534 1534 1535 1535 1536 1536 1537 1537 1538
1479 1480 1482 1483 1484 1486 1487 1488 1490 1491 1492 1494 1495 1497 1497 1498 1499 1500 1501 1502 1503 1504 1505 1507 1508 1509 1510 1512 1513 1514 1515 1516 1517 1518 1519 1519 1520 1521 1522 1522 1523 1524 1525 1526 1526 1527 1527 1528 1528 1528 1528 1529 1529 1529 1530 1531 1531 1531 1531 1532 1532 1532 1532 1532 1533 1534 1534 1535 1535
1478 1479 1480 1482 1483 1484 1486 1487 1489 1490 1492 1493 1494 1495 1496 1497 1497 1498 1499 1500 1501 1502 1503 1504 1506 1507 1508 1510 1511 1512 1513 1514 1515 1516 1517 1517 1518 1519 1519 1520 1521 1522 1522 1523 1524 1524 1525 1526 1526 1526 1526 1526 1526 1527 1527 1528 1529 1529 1529 1529 1529 1529 1530 1530 1530 1531 1532 1532 1532
1476 1478 1479 1481 1482 1483 1485 1487 1488 1489 1490 1492 1492 1493 1494 1494 1495 1496 1497 1498 1499 1500 1501 1503 1504 1506 1507 1507 1509 1510 1511 1512 1513 1514 1515 1515 1516 1517 1517 1518 1519 1519 1520 1521 1522 1522 1522 1523 1523 1523 1523 1523 1523 1524 1525 1526 1526 1526 1526 1526 1526 1527 1527 1527 1528 1528 1529 1530 1530
1475 1477 1478 1479 1481 1482 1484 1485 1487 1488 1489 1490 1491 1491 1492 1492 1493 1494 1495 1496 1497 1498 1500 1501 1502 1503 1505 1506 1507 1508 1509 1510 1511 1512 1512 1513 1514 1515 1515 1516 1517 1517 1518 1518 1519 1520 1520 1521 1521 1520 1520 1520 1521 1522 1522 1523 1523 1523 1523 1523 1523 1524 1524 1525 1525 1526 1526 1527 1527
1474 1475 1477 1478 1479 1481 1482 1484 1485 1486 1487 1488 1488 1489 1490 1491 1492 1492 1493 1495 1496 1497 1497 1499 1500 1501 1502 1503 1504 1506 1507 1508 1509 1510 1510 1511 1512 1512 1513 1513 1514 1515 1515 1516 1516 1517 1517 1518 1518 1518 1517 1518 1518 1518 1519 1520 1520 1520 1520 1521 1521 1521 1522 1522 1522 1523 1523 1524 1525
1472 1474 1475 1477 1478 1479 1481 1482 1483 1484 1485 1485 1486 1487 1488 1489 1490 1491 1492 1493 1494 1495 1496 1497 1498 1499 1500 1501 1502 1503 1504 1506 1507 1507 1508 1509 1509 1510 1511 1511 1512 1512 1512 1513 1514 1514 1515 1515 1515 1515 1515 1515 1515 1515 1516 1517 1517 1517 1517 1517 1518 1518 1519 1519 1520 1520 1521 1522 1522
1471 1472 1473 1475 1476 1477 1479 1480 1481 1482 1482 1483 1484 1485 1486 1487 1488 1489 1490 1491 1492 1493 1494 1495 1496 1497 1498 1499 1500 1501 1502 1503 1504 1505 1506 1506 1507 1507 1508 1508 1509 1509 1510 1510 1511 1511 1512 1512 1512 1512 1512 1512 1512 1512 1513 1514 1514 1514 1514 1514 1515 1516 1516 1517 1517 1518 1518 1519 1519
1469 1471 1472 1473 1474 1476 1477 1478 1479 1480 1481 1481 1482 1483 1484 1485 1486 1487 1488 1489 1490 1491 1492 1493 1494 1495 1496 1497 1497 1498 1499 1500 1501 1502 1502 1503 1504 1504 1505 1505 1506 1506 1507 1507 1508 1508 1508 1508 1509 1509 1509 1509 1509 1510 1510 1510 1511 1511 1512 1512 1512 1513 1513 1514 1515 1515 1516 1516 1517
1468 1469 1471 1472 1473 1474 1476 1476 1477 1478 1478 1479 1480 1481 1482 1482 1483 1485 1486 1487 1487 1488 1489 1490 1491 1492 1493 1494 1495 1495 1496 1497 1497 1498 1499 1499 1500 1501 1501 1502 1502 1503 1503 1504 1504 1505 1505 1505 1505 1506 1506 1506 1506 1507 1507 1507 1507 1508 1508 1509 1509 1510 1511 1511 1512 1513 1513 1514 1515
1467 1468 1469 1470 1472 1473 1474 1474 1475 1476 1476 1477 1477 1478 1479 1480 1481 1482 1483 1484 1485 1486 1487 1488 1489 1489 1490 1490 1491 1492 1492 1493 1493 1494 1495 1496 1496 1497 1497 1498 1499 1499 1500 1501 1501 1501 1502 1502 1502 1502 1503 1503 1503 1503 1504 1504 1505 1505 1506 1506 1507 1507 1508 1509 1510 1510 1511 1512 1512
1466 1467 1468 1469 1470 1471 1472 1472 1473 1473 1474 1474 1475 1476 1477 1478 1479 1480 1481 1482 1482 1483 1484 1485 1486 1486 1487 1487 1488 1488 1489 1489 1490 1491 1491 1492 1492 1493 1494 1494 1495 1496 1497 1497 1497 1498 1498 1499 1499 1500 1500 1500 1501 1501 1502 1502 1502 1503 1503 1504 1504 1505 1506 1507 1507 1508 1508 1509 1510
1464 1465 1466 1467 1467 1468 1469 1469 1470 1471 1472 1472 1473 1474 1475 1476 1477 1477 1478 1479 1480 1481 1482 1482 1483 1483 1483 1484 1485 1485 1486 1486 1487 1487 1488 1488 1489 1490 1490 1491 1492 1492 1493 1494 1494 1495 1495 1496 1496 1497 1497 1498 1498 1499 1499 1500 1500 1501 1501 1502 1502 1503 1504 1504 1505 1506 1506 1507 1507
1461 1462 1462 1464 1465 1465 1466 1467 1467 1468 1469 1470 1470 1472 1472 1473 1474 1475 1475 1476 1477 1478 1479 1479 1480 1480 1480 1481 1481 1482 1482 1483 1483 1484 1485 1486 1486 1487 1487 1488 1489 1489 1490 1491 1491 1492 1492 1493 1493 1494 1495 1495 1496 1496 1497 1497 1498 1498 1499 1500 1500 1501 1502 1502 1503 1504 1504 1505 1505
1457 1458 1459 1460 1461 1462 1462 1463 1464 1465 1466 1467 1468 1469 1470 1471 1472 1472 1472 1473 1474 1475 1476 1476 1477 1477 1477 1478 1478 1479 1480 1480 1481 1481 1482 1482 1483 1484 1485 1486 1486 1487 1487 1488 1488 1489 1490 1490 1491 1491 1492 1492 1493 1493 1494 1494 1495 1496 1497 1498 1498 1499 1499 1500 1501 1502 1502 1502 1502
1452 1453 1455 1456 1456 1457 1458 1460 1461 1462 1463 1465 1466 1467 1467 1468 1469 1470 1470 1471 1471 1472 1472 1473 1474 1474 1475 1475 1475 1476 1477 1477 1478 1478 1479 1480 1481 1482 1482 1483 1484 1484 1485 1486 1486 1487 1487 1487 1488 1489 1489 1490 1490 1491 1491 1492 1492 1494 1495 1496 1496 1497 1497 1497 1498 1499 1499 1499 1499
1449 1450 1451 1451 1452 1453 1454 1456 1457 1459 1462 1462 1464 1464 1465 1466 1467 1468 1468 1468 1469 1469 1470 1470 1471 1471 1472 1472 1472 1473 1473 1474 1475 1476 1477 1477 1479 1480 1480 1481 1482 1482 1483 1483 1484 1484 1485 1485 1486 1486 1487 1487 1488 1488 1489 1490 1491 1492 1493 1494 1495 1495 1495 1496 1497 1497 1497 1497 1496
1447 1447 1448 1448 1449 1450 1452 1453 1454 1456 1458 1460 1462 1464 1465 1464 1464 1465 1465 1466 1466 1467 1467 1467 1468 1468 1468 1469 1469 1470 1470 1471 1472 1473 1474 1476 1477 1478 1478 1479 1480 1480 1481 1481 1482 1482 1482 1483 1483 1484 1484 1485 1486 1486 1487 1488 1490 1491 1492 1493 1493 1494 1494 1494 1494 1494 1493 1493 1492
1444 1444 1445 1446 1447 1448 1449 1451 1452 1453 1455 1457 1458 1460 1461 1461 1462 1463 1463 1463 1463 1463 1463 1463 1464 1464 1465 1466 1466 1466 1467 1468 1470 1472 1473 1474 1476 1476 1477 1477 1477 1478 1478 1479 1479 1480 1481 1481 1481 1482 1482 1482 1483 1484 1486 1487 1489 1490 1491 1491 1492 1491 1491 1491 1490 1490 1489 1489 1489
1441 1442 1442 1444 1445 1446 1447 1448 1450 1451 1452 1454 1455 1456 1456 1457 1458 1459 1460 1461 1462 1461 1460 1459 1460 1460 1461 1462 1463 1463 1465 1467 1469 1471 1472 1473 1474 1474 1474 1475 1475 1476 1476 1477 1477 1478 1478 1479 1479 1479 1480 1481 1482 1483 1485 1486 1487 1488 1488 1489 1488 1488 1488 1487 1487 1487 1486 1486 1485
1438 1439 1440 1442 1442 1443 1445 1446 1447 1448 1449 1451 1452 1453 1454 1455 1455 1456 1457 1457 1458 1458 1457 1457 1457 1458 1458 1459 1460 1461 1463 1465 1467 1469 1470 1471 1472 1472 1472 1472 1473 1473 1474 1474 1475 1476 1477 1477 1477 1477 1478 1480 1482 1483 1484 1484 1485 1485 1485 1485 1485 1485 1484 1484 1484 1484 1483 1482 1482
1435 1437 1438 1439 1440 1441 1442 1443 1444 1445 1446 1447 1448 1450 1451 1452 1453 1454 1455 1455 1455 1455 1455 1455 1455 1456 1457 1457 1458 1459 1461 1463 1465 1466 1467 1468 1469 1470 1470 1470 1470 1471 1472 1473 1474 1474 1474 1475 1475 1476 1477 1479 1481 1482 1483 1483 1483 1482 1482 1482 1481 1481 1481 1481 1481 1480 1480 1479 1479
1432 1434 1435 1437 1438 1439 1440 1441 1441 1442 1442 1443 1445 1447 1448 1449 1451 1452 1453 1453 1454 1453 1453 1454 1454 1454 1455 1455 1456 1458 1460 1461 1462 1462 1463 1465 1467 1469 1469 1469 1469 1469 1470 1472 1472 1472 1472 1473 1474 1475 1477 1478 1480 1481 1482 1481 1480 1479 1479 1478 1478 1478 1478 1477 1477 1477 1477 1477 1477
1430 1432 1433 1434 1436 1437 1437 1438 1438 1439 1439 1440 1442 1443 1445 1446 1448 1449 1451 1451 1452 1452 1452 1452 1453 1453 1453 1454 1455 1456 1457 1458 1459 1459 1460 1461 1464 1467 1467 1467 1468 1468 1469 1470 1470 1471 1471 1472 1472 1474 1476 1477 1479 1479 1479 1478 1477 1476 1476 1475 1475 1475 1475 1475 1474 1474 1474 1474 1474
1427 1429 1430 1431 1433 1434 1435 1435 1436 1436 1437 1438 1439 1440 1442 1443 1445 1447 1448 1449 1449 1450 1451 1451 1451 1451 1451 1452 1452 1453 1454 1455 1456 1457 1457 1458 1460 1462 1464 1465 1466 1466 1467 1467 1468 1469 1469 1469 1470 1472 1474 1477 1477 1477 1476 1475 1474 1473 1473 1473 1472 1472 1472 1472 1472 1472 1471 1471 1471
1425 1425 1426 1428 1429 1431 1432 1433 1433 1434 1434 1435 1436 1437 1439 1441 1442 1444 1445 1446 1447 1448 1448 1449 1449 1449 1449 1449 1450 1450 1451 1452 1453 1454 1455 1456 1457 1458 1460 1462 1463 1463 1464 1465 1466 1467 1467 1467 1469 1471 1473 1475 1475 1474 1473 1472 1472 1471 1471 1470 1470 1470 1470 1470 1469 1469 1469 1468 1468
1422 1422 1423 1425 1425 1427 1428 1430 1430 1431 1431 1432 1434 1435 1437 1439 1440 1441 1442 1443 1444 1445 1446 1446 1446 1447 1447 1447 1447 1448 1448 1449 1451 1452 1453 1454 1454 1455 1456 1458 1459 1460 1461 1462 1463 1464 1465 1466 1468 1470 1471 1472 1472 1471 1471 1470 1469 1469 1468 1468 1468 1468 1467 1467 1467 1466 1466 1466 1466
1420 1421 1421 1422 1422 1423 1424 1425 1427 1428 1429 1431 1432 1434 1435 1436 1437 1438 1439 1440 1441 1442 1442 1443 1443 1444 1444 1444 1445 1446 1446 1447 1448 1449 1450 1452 1453 1454 1455 1456 1457 1457 1458 1458 1460 1461 1463 1465 1467 1468 1469 1469 1469 1468 1468 1467 1467 1466 1466 1466 1466 1465 1465 1464 1464 1464 1463 1463 1463
1418 1419 1419 1419 1420 1420 1421 1422 1423 1425 1427 1430 1431 1432 1433 1433 1434 1435 1436 1437 1438 1439 1440 1441 1441 1441 1442 1442 1443 1443 1444 1445 1446 1447 1448 1450 1452 1453 1454 1454 1454 1454 1454 1455 1457 1459 1461 1463 1465 1466 1466 1466 1466 1466 1465 1465 1464 1463 1463 1463 1463 1463 1462 1462 1462 1461 1461 1461 1461
1417 1417 1417 1417 1418 1418 1418 1419 1421 1423 1426 1428 1429 1430 1430 1431 1431 1432 1433 1435 1437 1438 1438 1439 1439 1439 1439 1440 1441 1441 1442 1443 1444 1445 1446 1448 1449 1451 1452 1452 1452 1452 1452 1453 1456 1458 1460 1462 1462 1463 1463 1464 1463 1463 1462 1462 1462 1461 1461 1460 1460 1460 1460 1459 1459 1459 1459 1459 1459
1415 1416 1416 1416 1416 1416 1417 1417 1419 1421 1423 1425 1427 1428 1428 1428 1429 1430 1432 1433 1434 1435 1436 1436 1437 1437 1437 1438 1439 1439 1440 1441 1441 1442 1443 1445 1446 1447 1448 1449 1449 1449 1450 1452 1455 1457 1459 1460 1460 1460 1461 1461 1461 1461 1460 1460 1459 1459 1458 1458 1458 1458 1457 1457 1457 1457 1457 1457 1457
1413 1413 1414 1414 1414 1414 1415 1416 1417 1419 1421 1422 1424 1425 1426 1427 1427 1428 1429 1430 1431 1432 1433 1433 1434 1434 1435 1436 1437 1437 1438 1439 1440 1440 1441 1442 1443 1444 1445 1446 1447 1448 1450 1452 1455 1457 1458 1458 1458 1458 1458 1458 1458 1458 1458 1458 1457 1457 1456 1456 1456 1456 1455 1455 1455 1455 1455 1455 1455
1410 1411 1412 1412 1412 1413 1414 1415 1416 1417 1418 1419 1421 1422 1423 1424 1425 1426 1427 1427 1429 1430 1430 1431 1432 1432 1434 1435 1435 1436 1437 1437 1437 1438 1439 1439 1440 1441 1442 1444 1445 1447 1449 1452 1454 1455 1456 1456 1456 1456 1456 1456 1456 1456 1456 1456 1455 1455 1454 1454 1454 1453 1453 1453 1452 1452 1453 1453 1453
1408 1409 1409 1410 1411 1412 1412 1413 1414 1415 1416 1417 1418 1419 1420 1421 1422 1423 1424 1426 1427 1428 1428 1429 1430 1431 1432 1433 1433 1434 1434 1435 1435 1436 1437 1437 1439 1440 1441 1443 1445 1447 1449 1451 1452 1452 1453 1452 1453 1453 1453 1454 1453 1453 1453 1453 1453 1453 1453 1452 1452 1451 1451 1451 1450 1451 1451 1451 1451
1406 1407 1407 1408 1410 1411 1411 1412 1412 1413 1414 1415 1416 1417 1418 1419 1420 1421 1423 1424 1425 1426 1427 1427 1428 1429 1430 1431 1431 1431 1432 1432 1433 1434 1435 1436 1437 1439 1441 1443 1445 1446 1447 1448 1449 1449 1449 1449 1450 1450 1451 1451 1451 1451 1451 1452 1452 1451 1451 1450 1450 1449 1449 1448 1448 1448 1448 1449 1449
1404 1405 1406 1407 1408 1410 1410 1411 1412 1412 1413 1413 1414 1415 1416 1417 1418 1420 1421 1422 1423 1424 1425 1426 1427 1427 1427 1428 1429 1429 1430 1431 1432 1433 1434 1435 1437 1439 1441 1443 1444 1444 1445 1445 1445 1446 1446 1447 1447 1448 1448 1449 1449 1449 1449 1449 1449 1449 1449 1448 1448 1447 1447 1447 1446 1446 1447 1447 1447
1403 1404 1405 1406 1407 1409 1410 1411 1411 1412 1412 1413 1413 1414 1415 1417 1417 1418 1419 1421 1422 1423 1424 1425 1425 1425 1426 1427 1427 1428 1429 1429 1430 1431 1433 1434 1436 1438 1440 1442 1442 1442 1442 1442 1443 1444 1444 1445 1446 1446 1447 1447 1447 1447 1447 1447 1447 1447 1447 1446 1446 1445 1445 1445 1445 1445 1445 1445 1445
1402 1403 1404 1405 1407 1408 1409 1410 1410 1411 1412 1412 1413 1414 1415 1415 1416 1417 1418 1419 1421 1422 1422 1423 1423 1423 1424 1425 1426 1427 1427 1428 1429 1430 1432 1434 1436 1437 1439 1440 1440 1441 1441 1441 1442 1442 1443 1443 1444 1444 1445 1445 1446 1446 1446 1446 1445 1445 1444 1444 1444 1443 1443 1443 1443 1443 1443 1443 1443
1401 1402 1403 1404 1405 1407 1408 1408 1409 1410 1411 1411 1412 1413 1413 1414 1415 1416 1417 1418 1419 1420 1421 1421 1422 1422 1422 1423 1424 1425 1426 1427 1428 1430 1432 1434 1436 1437 1437 1438 1438 1439 1439 1439 1440 1440 1441 1442 1442 1443 1443 1444 1444 1444 1444 1444 1443 1443 1442 1442 1442 1442 1441 1441 1441 1441 1441 1441 1442